Starlink 30503

operational
NORAD ID: 57975 Int'l Des: 2023-151 Owner: SPXS Country: US Constellation: starlink
LEOCIRCULAR

关于 Starlink 30503

正在加载描述...

实时位置

正在加载3D地球...

即将过境

高度历史

Altitude vs Time

uPlot chart will show altitude changes over time

两行轨道根数

1 57975U 23151M 25303.48831780 .00000090 00000-0 21721-4 0 9993
2 57975 43.0053 326.6037 0001288 273.9677 86.1018 15.02535320116140
Epoch: Oct 30, 2025 • Age: 22 hours

当前状态

高度 558.3 km
速度 7.58 km/s
星下点 5.75°N, 136.33°E
发射日期 Sep 30, 2023
运行时间 2 years
类型 internet

技术详情

分类 Payload
质量 730.00 kg
干质量 700.00 kg
总质量 730.00 kg
长度 0.30 m
直径 4.10 m
跨度 29.00 m
形状 Box + pan
制造商 SPXS
平台类型 Starlink V2M
阶段状态 In Orbit
所有者/国家 SPXS/US

大型星座

Loading constellations...